Location: Boitzum
(52.1496°N, 9.6943°E)
Time: 00:40:56
(UTC+00:00)

Cosmos 1844 - Pass Details

Date: 13 January 2026
Orbit: 823 x 865 km, 70.9° (Epoch: 18 February)

Event Time Altitude Azimuth Distance (km) Brightness Sun altitude
Exits shadow 04:25:48 41° 351° (N) 1,194 4.3 -26.5°
Drops below altitude 10° 04:29:51 10° 25° (NNE) 2,437 6.3 -25.9°
Sets 04:32:22 0° 30° (NNE) 3,371 7.2 -25.5°
